Вернуться в каталог

SL-14 DEB

АктивенPO
NORAD 39979·DEBRIS·🇷🇺 Russia

Запущен Aug 18, 1987 с Plesetsk Cosmodrome

Loading…

Ближайшие Пролёты (ближайшие 24 часа)

TLE

СвежийSource: Space-Track

Эпоха: Sep 12, 2026, 21:43 UTC

1 39979U 87068DF  26255.90501519  .00005541  00000-0  11525-2 0  9997
2 39979  82.5138 126.7432 0022556  75.3015 285.0685 14.59780578640044

Отслеживайте SL-14 DEB в реальном времени с AllMySat

Download on the App Store